owner,sensor,date,latitude,longitude,vertical_datum,wind_speed,wind_to_direction,wind_speed_of_gust,qcFlag 
DISL,ioos:station:DISL:DISL:1,2015-01-01T06:30:00Z,30.2513,-88.0778,9.68,5.35,19.94,-9999.0,'1111122,1111122,1111122' 
DISL,ioos:station:DISL:DISL:1,2015-01-01T07:00:00Z,30.2513,-88.0778,9.68,7.07,359.3,-9999.0,'1111122,1111122,1111122' 
DISL,ioos:station:DISL:DISL:1,2015-01-01T07:30:00Z,30.2513,-88.0778,9.68,6.88,11.96,-9999.0,'1111122,1111122,1111122' 
DISL,ioos:station:DISL:DISL:1,2015-01-01T08:00:00Z,30.2513,-88.0778,9.68,7.26,20.51,-9999.0,'1111122,1111122,1111122' 
DISL,ioos:station:DISL:DISL:1,2015-01-01T08:30:00Z,30.2513,-88.0778,9.68,7.08,33.93,-9999.0,'1111122,1111122,1111122' 
DISL,ioos:station:DISL:DISL:1,2015-01-01T09:00:00Z,30.2513,-88.0778,9.68,6.76,32.05,-9999.0,'1111122,1111122,1111122' 
DISL,ioos:station:DISL:DISL:1,2015-01-01T09:30:00Z,30.2513,-88.0778,9.68,6.82,18.68,-9999.0,'1111122,1111122,1111122' 
DISL,ioos:station:DISL:DISL:1,2015-01-01T10:00:00Z,30.2513,-88.0778,9.68,6.1,27.12,-9999.0,'1111122,1111122,1111122' 
DISL,ioos:station:DISL:DISL:1,2015-01-01T10:30:00Z,30.2513,-88.0778,9.68,6.48,38.85,-9999.0,'1111122,1111122,1111122' 
DISL,ioos:station:DISL:DISL:1,2015-01-01T11:00:00Z,30.2513,-88.0778,9.68,6.81,53.02,-9999.0,'1111122,1111122,1111122' 
DISL,ioos:station:DISL:DISL:1,2015-01-01T11:30:00Z,30.2513,-88.0778,9.68,6.76,55.42,-9999.0,'1111122,1111122,1111122' 
DISL,ioos:station:DISL:DISL:1,2015-01-01T12:00:00Z,30.2513,-88.0778,9.68,6.39,62.86,-9999.0,'1111122,1111122,1111122' 
DISL,ioos:station:DISL:DISL:1,2015-01-01T12:30:00Z,30.2513,-88.0778,9.68,6.44,65.7,-9999.0,'1111122,1111122,1111122' 
DISL,ioos:station:DISL:DISL:1,2015-01-01T13:00:00Z,30.2513,-88.0778,9.68,6.39,64.78,-9999.0,'1111122,1111122,1111122' 
DISL,ioos:station:DISL:DISL:1,2015-01-01T13:30:00Z,30.2513,-88.0778,9.68,6.24,71.46,-9999.0,'1111122,1111122,1111122' 
DISL,ioos:station:DISL:DISL:1,2015-01-01T14:00:00Z,30.2513,-88.0778,9.68,5.17,79.2,-9999.0,'1111122,1111122,1111122' 
DISL,ioos:station:DISL:DISL:1,2015-01-01T14:30:00Z,30.2513,-88.0778,9.68,5.56,68.38,-9999.0,'1111122,1111122,1111122' 
DISL,ioos:station:DISL:DISL:1,2015-01-01T15:00:00Z,30.2513,-88.0778,9.68,4.53,72.22,-9999.0,'1111122,1111122,1111122' 
DISL,ioos:station:DISL:DISL:1,2015-01-01T15:30:00Z,30.2513,-88.0778,9.68,4.21,76.16,-9999.0,'1111122,1111122,1111122' 
DISL,ioos:station:DISL:DISL:1,2015-01-01T16:00:00Z,30.2513,-88.0778,9.68,3.78,73.01,-9999.0,'1111122,1111122,1111122' 
DISL,ioos:station:DISL:DISL:1,2015-01-01T16:30:00Z,30.2513,-88.0778,9.68,3.46,64.18,-9999.0,'1111122,1111122,1111122' 
DISL,ioos:station:DISL:DISL:1,2015-01-01T17:00:00Z,30.2513,-88.0778,9.68,2.93,77.66,-9999.0,'1111122,1111122,1111122' 
DISL,ioos:station:DISL:DISL:1,2015-01-01T17:30:00Z,30.2513,-88.0778,9.68,2.86,68.47,-9999.0,'1111122,1111122,1111122' 
DISL,ioos:station:DISL:DISL:1,2015-01-01T18:00:00Z,30.2513,-88.0778,9.68,3.46,51.28,-9999.0,'1111122,1111122,1111122' 
DISL,ioos:station:DISL:DISL:1,2015-01-01T18:30:00Z,30.2513,-88.0778,9.68,3.41,26.09,-9999.0,'1111122,1111122,1111122' 
DISL,ioos:station:DISL:DISL:1,2015-01-01T19:00:00Z,30.2513,-88.0778,9.68,3.11,32.04,-9999.0,'1111122,1111122,1111122' 
DISL,ioos:station:DISL:DISL:1,2015-01-01T19:30:00Z,30.2513,-88.0778,9.68,3.51,26.79,-9999.0,'1111122,1111122,1111122' 
DISL,ioos:station:DISL:DISL:1,2015-01-01T20:00:00Z,30.2513,-88.0778,9.68,3.44,36.81,-9999.0,'1111122,1111122,1111122' 
DISL,ioos:station:DISL:DISL:1,2015-01-01T20:30:00Z,30.2513,-88.0778,9.68,3.09,28.79,-9999.0,'1111122,1111122,1111122' 
DISL,ioos:station:DISL:DISL:1,2015-01-01T21:00:00Z,30.2513,-88.0778,9.68,3.7,15.35,-9999.0,'1111122,1111122,1111122' 
DISL,ioos:station:DISL:DISL:1,2015-01-01T21:30:00Z,30.2513,-88.0778,9.68,4.1,11.91,-9999.0,'1111122,1111122,1111122' 
DISL,ioos:station:DISL:DISL:1,2015-01-01T22:00:00Z,30.2513,-88.0778,9.68,3.94,29.95,-9999.0,'1111122,1111122,1111122' 
DISL,ioos:station:DISL:DISL:1,2015-01-01T22:30:00Z,30.2513,-88.0778,9.68,3.84,16.8,-9999.0,'1111122,1111122,1111122' 
DISL,ioos:station:DISL:DISL:1,2015-01-01T23:00:00Z,30.2513,-88.0778,9.68,2.77,30.18,-9999.0,'1111122,1111122,1111122' 
DISL,ioos:station:DISL:DISL:1,2015-01-01T23:30:00Z,30.2513,-88.0778,9.68,2.73,26.5,-9999.0,'1111122,1111122,1111122' 
DISL,ioos:station:DISL:DISL:1,2015-01-02T00:00:00Z,30.2513,-88.0778,9.68,3.54,30.98,-9999.0,'1111122,1111122,1111122' 
DISL,ioos:station:DISL:DISL:1,2015-01-02T00:30:00Z,30.2513,-88.0778,9.68,3.79,22.65,-9999.0,'1111122,1111122,1111122' 
DISL,ioos:station:DISL:DISL:1,2015-01-02T01:00:00Z,30.2513,-88.0778,9.68,4.03,30.27,-9999.0,'1111122,1111122,1111122' 
DISL,ioos:station:DISL:DISL:1,2015-01-02T01:30:00Z,30.2513,-88.0778,9.68,4.9,49.49,-9999.0,'1111122,1111122,1111122' 
DISL,ioos:station:DISL:DISL:1,2015-01-02T02:00:00Z,30.2513,-88.0778,9.68,6.71,27.19,-9999.0,'1111122,1111122,1111122' 
DISL,ioos:station:DISL:DISL:1,2015-01-02T02:30:00Z,30.2513,-88.0778,9.68,8.36,25.61,-9999.0,'1111122,1111122,1111122' 
DISL,ioos:station:DISL:DISL:1,2015-01-02T03:00:00Z,30.2513,-88.0778,9.68,7.69,28.06,-9999.0,'1111122,1111122,1111122' 
DISL,ioos:station:DISL:DISL:1,2015-01-02T03:30:00Z,30.2513,-88.0778,9.68,6.89,28.98,-9999.0,'1111122,1111122,1111122' 
DISL,ioos:station:DISL:DISL:1,2015-01-02T04:00:00Z,30.2513,-88.0778,9.68,5.97,35.72,-9999.0,'1111122,1111122,1111122' 
DISL,ioos:station:DISL:DISL:1,2015-01-02T04:30:00Z,30.2513,-88.0778,9.68,7.76,53.86,-9999.0,'1111122,1111122,1111122' 
DISL,ioos:station:DISL:DISL:1,2015-01-02T05:00:00Z,30.2513,-88.0778,9.68,7.06,61.78,-9999.0,'1111122,1111122,1111122' 
DISL,ioos:station:DISL:DISL:1,2015-01-02T05:30:00Z,30.2513,-88.0778,9.68,6.53,75.25,-9999.0,'1111122,1111122,1111122' 
DISL,ioos:station:DISL:DISL:1,2015-01-02T06:00:00Z,30.2513,-88.0778,9.68,6.39,76.47,-9999.0,'1111122,1111122,1111122' 
DISL,ioos:station:DISL:DISL:1,2015-01-02T06:30:00Z,30.2513,-88.0778,9.68,6.21,87.4,-9999.0,'1111122,1111122,1111122' 
DISL,ioos:station:DISL:DISL:1,2015-01-02T07:00:00Z,30.2513,-88.0778,9.68,5.33,82.8,-9999.0,'1111122,1111122,1111122' 
DISL,ioos:station:DISL:DISL:1,2015-01-02T07:30:00Z,30.2513,-88.0778,9.68,5.9,76.22,-9999.0,'1111122,1111122,1111122' 
DISL,ioos:station:DISL:DISL:1,2015-01-02T08:00:00Z,30.2513,-88.0778,9.68,6.11,77.1,-9999.0,'1111122,1111122,1111122' 
DISL,ioos:station:DISL:DISL:1,2015-01-02T08:30:00Z,30.2513,-88.0778,9.68,6.17,73.74,-9999.0,'1111122,1111122,1111122' 
DISL,ioos:station:DISL:DISL:1,2015-01-02T09:00:00Z,30.2513,-88.0778,9.68,5.85,75.59,-9999.0,'1111122,1111122,1111122' 
DISL,ioos:station:DISL:DISL:1,2015-01-02T09:30:00Z,30.2513,-88.0778,9.68,6.45,76.96,-9999.0,'1111122,1111122,1111122' 
DISL,ioos:station:DISL:DISL:1,2015-01-02T10:00:00Z,30.2513,-88.0778,9.68,6.25,78.99,-9999.0,'1111122,1111122,1111122' 
DISL,ioos:station:DISL:DISL:1,2015-01-02T10:30:00Z,30.2513,-88.0778,9.68,6.16,86.2,-9999.0,'1111122,1111122,1111122' 
DISL,ioos:station:DISL:DISL:1,2015-01-02T11:00:00Z,30.2513,-88.0778,9.68,5.62,90.3,-9999.0,'1111122,1111122,1111122' 
DISL,ioos:station:DISL:DISL:1,2015-01-02T11:30:00Z,30.2513,-88.0778,9.68,6.18,96.4,-9999.0,'1111122,1111122,1111122' 
DISL,ioos:station:DISL:DISL:1,2015-01-02T12:00:00Z,30.2513,-88.0778,9.68,5.54,96.4,-9999.0,'1111122,1111122,1111122' 
DISL,ioos:station:DISL:DISL:1,2015-01-02T12:30:00Z,30.2513,-88.0778,9.68,3.08,79.67,-9999.0,'1111122,1111122,1111122' 
DISL,ioos:station:DISL:DISL:1,2015-01-02T13:00:00Z,30.2513,-88.0778,9.68,4.01,73.71,-9999.0,'1111122,1111122,1111122' 
DISL,ioos:station:DISL:DISL:1,2015-01-02T13:30:00Z,30.2513,-88.0778,9.68,4.47,90.3,-9999.0,'1111122,1111122,1111122' 
DISL,ioos:station:DISL:DISL:1,2015-01-02T14:00:00Z,30.2513,-88.0778,9.68,4.59,105.6,-9999.0,'1111122,1111122,1111122' 
DISL,ioos:station:DISL:DISL:1,2015-01-02T14:30:00Z,30.2513,-88.0778,9.68,4.48,108.2,-9999.0,'1111122,1111122,1111122' 
DISL,ioos:station:DISL:DISL:1,2015-01-02T15:00:00Z,30.2513,-88.0778,9.68,3.87,109.8,-9999.0,'1111122,1111122,1111122' 
DISL,ioos:station:DISL:DISL:1,2015-01-02T15:30:00Z,30.2513,-88.0778,9.68,4.74,108.4,-9999.0,'1111122,1111122,1111122' 
DISL,ioos:station:DISL:DISL:1,2015-01-02T16:00:00Z,30.2513,-88.0778,9.68,3.36,97.4,-9999.0,'1111122,1111122,1111122' 
DISL,ioos:station:DISL:DISL:1,2015-01-02T16:30:00Z,30.2513,-88.0778,9.68,4.08,107.0,-9999.0,'1111122,1111122,1111122' 
DISL,ioos:station:DISL:DISL:1,2015-01-02T17:00:00Z,30.2513,-88.0778,9.68,4.46,110.9,-9999.0,'1111122,1111122,1111122' 
DISL,ioos:station:DISL:DISL:1,2015-01-02T17:30:00Z,30.2513,-88.0778,9.68,4.38,107.7,-9999.0,'1111122,1111122,1111122' 
DISL,ioos:station:DISL:DISL:1,2015-01-02T18:00:00Z,30.2513,-88.0778,9.68,4.68,115.3,-9999.0,'1111122,1111122,1111122' 
DISL,ioos:station:DISL:DISL:1,2015-01-02T18:30:00Z,30.2513,-88.0778,9.68,4.34,120.2,-9999.0,'1111122,1111122,1111122' 
DISL,ioos:station:DISL:DISL:1,2015-01-02T19:00:00Z,30.2513,-88.0778,9.68,4.02,135.4,-9999.0,'1111122,1111122,1111122' 
DISL,ioos:station:DISL:DISL:1,2015-01-02T19:30:00Z,30.2513,-88.0778,9.68,3.36,126.7,-9999.0,'1111122,1111122,1111122' 
DISL,ioos:station:DISL:DISL:1,2015-01-02T20:00:00Z,30.2513,-88.0778,9.68,3.66,117.7,-9999.0,'1111122,1111122,1111122' 
DISL,ioos:station:DISL:DISL:1,2015-01-02T20:30:00Z,30.2513,-88.0778,9.68,3.3,121.6,-9999.0,'1111122,1111122,1111122' 
DISL,ioos:station:DISL:DISL:1,2015-01-02T21:00:00Z,30.2513,-88.0778,9.68,2.21,114.1,-9999.0,'1111122,1111122,1111122' 
DISL,ioos:station:DISL:DISL:1,2015-01-02T21:30:00Z,30.2513,-88.0778,9.68,2.07,104.9,-9999.0,'1111122,1111122,1111122' 
DISL,ioos:station:DISL:DISL:1,2015-01-02T22:00:00Z,30.2513,-88.0778,9.68,2.92,99.2,-9999.0,'1111122,1111122,1111122' 
DISL,ioos:station:DISL:DISL:1,2015-01-02T22:30:00Z,30.2513,-88.0778,9.68,3.88,95.0,-9999.0,'1111122,1111122,1111122' 
DISL,ioos:station:DISL:DISL:1,2015-01-02T23:00:00Z,30.2513,-88.0778,9.68,3.56,104.6,-9999.0,'1111122,1111122,1111122' 
DISL,ioos:station:DISL:DISL:1,2015-01-02T23:30:00Z,30.2513,-88.0778,9.68,5.2,102.2,-9999.0,'1111122,1111122,1111122' 
DISL,ioos:station:DISL:DISL:1,2015-01-03T00:00:00Z,30.2513,-88.0778,9.68,5.51,93.7,-9999.0,'1111122,1111122,1111122' 
DISL,ioos:station:DISL:DISL:1,2015-01-03T00:30:00Z,30.2513,-88.0778,9.68,5.25,84.5,-9999.0,'1111122,1111122,1111122' 
DISL,ioos:station:DISL:DISL:1,2015-01-03T01:00:00Z,30.2513,-88.0778,9.68,4.06,92.5,-9999.0,'1111122,1111122,1111122' 
DISL,ioos:station:DISL:DISL:1,2015-01-03T01:30:00Z,30.2513,-88.0778,9.68,6.23,96.7,-9999.0,'1111122,1111122,1111122' 
DISL,ioos:station:DISL:DISL:1,2015-01-03T02:00:00Z,30.2513,-88.0778,9.68,6.67,100.3,-9999.0,'1111122,1111122,1111122' 
DISL,ioos:station:DISL:DISL:1,2015-01-03T02:30:00Z,30.2513,-88.0778,9.68,6.78,102.5,-9999.0,'1111122,1111122,1111122' 
DISL,ioos:station:DISL:DISL:1,2015-01-03T03:00:00Z,30.2513,-88.0778,9.68,7.42,103.0,-9999.0,'1111122,1111122,1111122' 
DISL,ioos:station:DISL:DISL:1,2015-01-03T03:30:00Z,30.2513,-88.0778,9.68,7.64,99.5,-9999.0,'1111122,1111122,1111122' 
DISL,ioos:station:DISL:DISL:1,2015-01-03T04:00:00Z,30.2513,-88.0778,9.68,7.71,98.5,-9999.0,'1111122,1111122,1111122' 
DISL,ioos:station:DISL:DISL:1,2015-01-03T04:30:00Z,30.2513,-88.0778,9.68,7.25,103.6,-9999.0,'1111122,1111122,1111122' 
DISL,ioos:station:DISL:DISL:1,2015-01-03T05:00:00Z,30.2513,-88.0778,9.68,7.28,98.2,-9999.0,'1111122,1111122,1111122' 
DISL,ioos:station:DISL:DISL:1,2015-01-03T05:30:00Z,30.2513,-88.0778,9.68,6.35,100.6,-9999.0,'1111122,1111122,1111122' 
DISL,ioos:station:DISL:DISL:1,2015-01-03T06:00:00Z,30.2513,-88.0778,9.68,6.57,96.9,-9999.0,'1111122,1111122,1111122' 
DISL,ioos:station:DISL:DISL:1,2015-01-03T06:30:00Z,30.2513,-88.0778,9.68,6.94,100.5,-9999.0,'1111122,1111122,1111122' 
DISL,ioos:station:DISL:DISL:1,2015-01-03T07:00:00Z,30.2513,-88.0778,9.68,7.88,100.7,-9999.0,'1111122,1111122,1111122' 
DISL,ioos:station:DISL:DISL:1,2015-01-03T07:30:00Z,30.2513,-88.0778,9.68,6.24,115.5,-9999.0,'1111122,1111122,1111122' 
DISL,ioos:station:DISL:DISL:1,2015-01-03T08:00:00Z,30.2513,-88.0778,9.68,6.92,107.2,-9999.0,'1111122,1111122,1111122' 
DISL,ioos:station:DISL:DISL:1,2015-01-03T08:30:00Z,30.2513,-88.0778,9.68,7.54,100.3,-9999.0,'1111122,1111122,1111122' 
DISL,ioos:station:DISL:DISL:1,2015-01-03T09:00:00Z,30.2513,-88.0778,9.68,5.83,107.1,-9999.0,'1111122,1111122,1111122' 
DISL,ioos:station:DISL:DISL:1,2015-01-03T09:30:00Z,30.2513,-88.0778,9.68,4.73,111.7,-9999.0,'1111122,1111122,1111122' 
DISL,ioos:station:DISL:DISL:1,2015-01-03T10:00:00Z,30.2513,-88.0778,9.68,4.63,120.3,-9999.0,'1111122,1111122,1111122' 
DISL,ioos:station:DISL:DISL:1,2015-01-03T10:30:00Z,30.2513,-88.0778,9.68,5.98,111.9,-9999.0,'1111122,1111122,1111122' 
DISL,ioos:station:DISL:DISL:1,2015-01-03T11:00:00Z,30.2513,-88.0778,9.68,5.3,112.5,-9999.0,'1111122,1111122,1111122' 
DISL,ioos:station:DISL:DISL:1,2015-01-03T11:30:00Z,30.2513,-88.0778,9.68,5.24,118.5,-9999.0,'1111122,1111122,1111122' 
DISL,ioos:station:DISL:DISL:1,2015-01-03T12:00:00Z,30.2513,-88.0778,9.68,5.13,122.4,-9999.0,'1111122,1111122,1111122' 
DISL,ioos:station:DISL:DISL:1,2015-01-03T12:30:00Z,30.2513,-88.0778,9.68,4.07,123.2,-9999.0,'1111122,1111122,1111122' 
DISL,ioos:station:DISL:DISL:1,2015-01-03T13:00:00Z,30.2513,-88.0778,9.68,4.57,129.7,-9999.0,'1111122,1111122,1111122' 
DISL,ioos:station:DISL:DISL:1,2015-01-03T13:30:00Z,30.2513,-88.0778,9.68,4.38,140.5,-9999.0,'1111122,1111122,1111122' 
DISL,ioos:station:DISL:DISL:1,2015-01-03T14:00:00Z,30.2513,-88.0778,9.68,4.31,121.6,-9999.0,'1111122,1111122,1111122' 
DISL,ioos:station:DISL:DISL:1,2015-01-03T14:30:00Z,30.2513,-88.0778,9.68,4.95,125.2,-9999.0,'1111122,1111122,1111122' 
DISL,ioos:station:DISL:DISL:1,2015-01-03T15:00:00Z,30.2513,-88.0778,9.68,5.0,146.3,-9999.0,'1111122,1111122,1111122' 
DISL,ioos:station:DISL:DISL:1,2015-01-03T15:30:00Z,30.2513,-88.0778,9.68,4.71,147.2,-9999.0,'1111122,1111122,1111122' 
DISL,ioos:station:DISL:DISL:1,2015-01-03T16:00:00Z,30.2513,-88.0778,9.68,4.73,146.4,-9999.0,'1111122,1111122,1111122' 
DISL,ioos:station:DISL:DISL:1,2015-01-03T16:30:00Z,30.2513,-88.0778,9.68,4.55,138.4,-9999.0,'1111122,1111122,1111122' 
DISL,ioos:station:DISL:DISL:1,2015-01-03T17:00:00Z,30.2513,-88.0778,9.68,5.18,140.1,-9999.0,'1111122,1111122,1111122' 
DISL,ioos:station:DISL:DISL:1,2015-01-03T17:30:00Z,30.2513,-88.0778,9.68,5.56,141.3,-9999.0,'1111122,1111122,1111122' 
DISL,ioos:station:DISL:DISL:1,2015-01-03T18:00:00Z,30.2513,-88.0778,9.68,4.87,138.8,-9999.0,'1111122,1111122,1111122' 
DISL,ioos:station:DISL:DISL:1,2015-01-03T18:30:00Z,30.2513,-88.0778,9.68,6.45,136.1,-9999.0,'1111122,1111122,1111122' 
DISL,ioos:station:DISL:DISL:1,2015-01-03T19:00:00Z,30.2513,-88.0778,9.68,5.43,141.5,-9999.0,'1111122,1111122,1111122' 
DISL,ioos:station:DISL:DISL:1,2015-01-03T19:30:00Z,30.2513,-88.0778,9.68,5.58,142.6,-9999.0,'1111122,1111122,1111122' 
DISL,ioos:station:DISL:DISL:1,2015-01-03T20:00:00Z,30.2513,-88.0778,9.68,4.87,153.8,-9999.0,'1111122,1111122,1111122' 
DISL,ioos:station:DISL:DISL:1,2015-01-03T20:30:00Z,30.2513,-88.0778,9.68,6.36,162.9,-9999.0,'1111122,1111122,1111122' 
DISL,ioos:station:DISL:DISL:1,2015-01-03T21:00:00Z,30.2513,-88.0778,9.68,6.62,154.8,-9999.0,'1111122,1111122,1111122' 
DISL,ioos:station:DISL:DISL:1,2015-01-03T21:30:00Z,30.2513,-88.0778,9.68,6.31,145.3,-9999.0,'1111122,1111122,1111122' 
DISL,ioos:station:DISL:DISL:1,2015-01-03T22:00:00Z,30.2513,-88.0778,9.68,5.38,156.5,-9999.0,'1111122,1111122,1111122' 
DISL,ioos:station:DISL:DISL:1,2015-01-03T22:30:00Z,30.2513,-88.0778,9.68,5.44,157.3,-9999.0,'1111122,1111122,1111122' 
DISL,ioos:station:DISL:DISL:1,2015-01-03T23:00:00Z,30.2513,-88.0778,9.68,5.53,156.0,-9999.0,'1111122,1111122,1111122' 
DISL,ioos:station:DISL:DISL:1,2015-01-03T23:30:00Z,30.2513,-88.0778,9.68,4.48,153.1,-9999.0,'1111122,1111122,1111122' 
DISL,ioos:station:DISL:DISL:1,2015-01-04T00:00:00Z,30.2513,-88.0778,9.68,4.44,160.0,-9999.0,'1111122,1111122,1111122' 
DISL,ioos:station:DISL:DISL:1,2015-01-04T00:30:00Z,30.2513,-88.0778,9.68,4.88,156.9,-9999.0,'1111122,1111122,1111122' 
DISL,ioos:station:DISL:DISL:1,2015-01-04T01:00:00Z,30.2513,-88.0778,9.68,5.36,164.0,-9999.0,'1111122,1111122,1111122' 
DISL,ioos:station:DISL:DISL:1,2015-01-04T01:30:00Z,30.2513,-88.0778,9.68,5.61,152.6,-9999.0,'1111122,1111122,1111122' 
DISL,ioos:station:DISL:DISL:1,2015-01-04T02:00:00Z,30.2513,-88.0778,9.68,4.91,155.3,-9999.0,'1111122,1111122,1111122' 
DISL,ioos:station:DISL:DISL:1,2015-01-04T02:30:00Z,30.2513,-88.0778,9.68,5.39,152.7,-9999.0,'1111122,1111122,1111122' 
DISL,ioos:station:DISL:DISL:1,2015-01-04T03:00:00Z,30.2513,-88.0778,9.68,5.31,153.7,-9999.0,'1111122,1111122,1111122' 
DISL,ioos:station:DISL:DISL:1,2015-01-04T03:30:00Z,30.2513,-88.0778,9.68,4.2,163.3,-9999.0,'1111122,1111122,1111122' 
DISL,ioos:station:DISL:DISL:1,2015-01-04T04:00:00Z,30.2513,-88.0778,9.68,2.42,190.3,-9999.0,'1111122,1111122,1111122' 
DISL,ioos:station:DISL:DISL:1,2015-01-04T04:30:00Z,30.2513,-88.0778,9.68,4.0,189.5,-9999.0,'1111122,1111122,1111122' 
DISL,ioos:station:DISL:DISL:1,2015-01-04T05:00:00Z,30.2513,-88.0778,9.68,1.47,181.8,-9999.0,'1111122,1111122,1111122' 
DISL,ioos:station:DISL:DISL:1,2015-01-04T05:30:00Z,30.2513,-88.0778,9.68,2.84,187.2,-9999.0,'1111122,1111122,1111122' 
DISL,ioos:station:DISL:DISL:1,2015-01-04T06:00:00Z,30.2513,-88.0778,9.68,2.95,191.3,-9999.0,'1111122,1111122,1111122' 
DISL,ioos:station:DISL:DISL:1,2015-01-04T06:30:00Z,30.2513,-88.0778,9.68,2.11,195.0,-9999.0,'1111122,1111122,1111122' 
DISL,ioos:station:DISL:DISL:1,2015-01-04T07:00:00Z,30.2513,-88.0778,9.68,2.81,184.6,-9999.0,'1111122,1111122,1111122' 
DISL,ioos:station:DISL:DISL:1,2015-01-04T07:30:00Z,30.2513,-88.0778,9.68,3.42,177.9,-9999.0,'1111122,1111122,1111122' 
DISL,ioos:station:DISL:DISL:1,2015-01-04T08:00:00Z,30.2513,-88.0778,9.68,2.24,176.6,-9999.0,'1111122,1111122,1111122' 
DISL,ioos:station:DISL:DISL:1,2015-01-04T08:30:00Z,30.2513,-88.0778,9.68,5.47,278.3,-9999.0,'1111122,1111122,1111122' 
DISL,ioos:station:DISL:DISL:1,2015-01-04T09:00:00Z,30.2513,-88.0778,9.68,4.8,280.6,-9999.0,'1111122,1111122,1111122' 
DISL,ioos:station:DISL:DISL:1,2015-01-04T09:30:00Z,30.2513,-88.0778,9.68,4.69,286.2,-9999.0,'1111122,1111122,1111122' 
DISL,ioos:station:DISL:DISL:1,2015-01-04T10:00:00Z,30.2513,-88.0778,9.68,4.72,289.7,-9999.0,'1111122,1111122,1111122' 
DISL,ioos:station:DISL:DISL:1,2015-01-04T10:30:00Z,30.2513,-88.0778,9.68,7.36,293.7,-9999.0,'1111122,1111122,1111122' 
DISL,ioos:station:DISL:DISL:1,2015-01-04T11:00:00Z,30.2513,-88.0778,9.68,5.3,294.4,-9999.0,'1111122,1111122,1111122' 
DISL,ioos:station:DISL:DISL:1,2015-01-04T11:30:00Z,30.2513,-88.0778,9.68,5.51,314.7,-9999.0,'1111122,1111122,1111122' 
DISL,ioos:station:DISL:DISL:1,2015-01-04T12:00:00Z,30.2513,-88.0778,9.68,6.97,314.6,-9999.0,'1111122,1111122,1111122' 
DISL,ioos:station:DISL:DISL:1,2015-01-04T12:30:00Z,30.2513,-88.0778,9.68,4.67,314.4,-9999.0,'1111122,1111122,1111122' 
DISL,ioos:station:DISL:DISL:1,2015-01-04T13:00:00Z,30.2513,-88.0778,9.68,0.82,319.8,-9999.0,'1111122,1111122,1111122' 
DISL,ioos:station:DISL:DISL:1,2015-01-04T13:30:00Z,30.2513,-88.0778,9.68,1.86,272.7,-9999.0,'1111122,1111122,1111122' 
DISL,ioos:station:DISL:DISL:1,2015-01-04T14:00:00Z,30.2513,-88.0778,9.68,2.87,275.6,-9999.0,'1111122,1111122,1111122' 
DISL,ioos:station:DISL:DISL:1,2015-01-04T14:30:00Z,30.2513,-88.0778,9.68,4.09,290.1,-9999.0,'1111122,1111122,1111122' 
DISL,ioos:station:DISL:DISL:1,2015-01-04T15:00:00Z,30.2513,-88.0778,9.68,4.69,304.4,-9999.0,'1111122,1111122,1111122' 
DISL,ioos:station:DISL:DISL:1,2015-01-04T15:30:00Z,30.2513,-88.0778,9.68,2.99,316.0,-9999.0,'1111122,1111122,1111122' 
DISL,ioos:station:DISL:DISL:1,2015-01-04T16:00:00Z,30.2513,-88.0778,9.68,3.86,324.7,-9999.0,'1111122,1111122,1111122' 
DISL,ioos:station:DISL:DISL:1,2015-01-04T16:30:00Z,30.2513,-88.0778,9.68,4.47,318.9,-9999.0,'1111122,1111122,1111122' 
DISL,ioos:station:DISL:DISL:1,2015-01-04T17:00:00Z,30.2513,-88.0778,9.68,3.11,329.5,-9999.0,'1111122,1111122,1111122' 
DISL,ioos:station:DISL:DISL:1,2015-01-04T17:30:00Z,30.2513,-88.0778,9.68,2.86,343.0,-9999.0,'1111122,1111122,1111122' 
DISL,ioos:station:DISL:DISL:1,2015-01-04T18:00:00Z,30.2513,-88.0778,9.68,4.43,359.9,-9999.0,'1111122,1111122,1111122' 
DISL,ioos:station:DISL:DISL:1,2015-01-04T18:30:00Z,30.2513,-88.0778,9.68,5.37,327.6,-9999.0,'1111122,1111122,1111122' 
DISL,ioos:station:DISL:DISL:1,2015-01-04T19:00:00Z,30.2513,-88.0778,9.68,6.7,327.4,-9999.0,'1111122,1111122,1111122' 
DISL,ioos:station:DISL:DISL:1,2015-01-04T19:30:00Z,30.2513,-88.0778,9.68,5.01,338.0,-9999.0,'1111122,1111122,1111122' 
DISL,ioos:station:DISL:DISL:1,2015-01-04T20:00:00Z,30.2513,-88.0778,9.68,4.8,338.9,-9999.0,'1111122,1111122,1111122' 
DISL,ioos:station:DISL:DISL:1,2015-01-04T20:30:00Z,30.2513,-88.0778,9.68,4.76,335.9,-9999.0,'1111122,1111122,1111122' 
DISL,ioos:station:DISL:DISL:1,2015-01-04T21:00:00Z,30.2513,-88.0778,9.68,5.63,329.3,-9999.0,'1111122,1111122,1111122' 
DISL,ioos:station:DISL:DISL:1,2015-01-04T21:30:00Z,30.2513,-88.0778,9.68,3.31,349.9,-9999.0,'1111122,1111122,1111122' 
DISL,ioos:station:DISL:DISL:1,2015-01-04T22:00:00Z,30.2513,-88.0778,9.68,3.15,3.356,-9999.0,'1111122,1111122,1111122' 
DISL,ioos:station:DISL:DISL:1,2015-01-04T22:30:00Z,30.2513,-88.0778,9.68,1.47,27.02,-9999.0,'1111122,1111122,1111122' 
DISL,ioos:station:DISL:DISL:1,2015-01-04T23:00:00Z,30.2513,-88.0778,9.68,1.69,354.4,-9999.0,'1111122,1111122,1111122' 
DISL,ioos:station:DISL:DISL:1,2015-01-04T23:30:00Z,30.2513,-88.0778,9.68,0.03,353.6,-9999.0,'1111122,1111122,1111122' 
DISL,ioos:station:DISL:DISL:1,2015-01-05T00:00:00Z,30.2513,-88.0778,9.68,2.54,319.4,-9999.0,'1111122,1111122,1111122' 
DISL,ioos:station:DISL:DISL:1,2015-01-05T00:30:00Z,30.2513,-88.0778,9.68,6.14,317.0,-9999.0,'1111122,1111122,1111122' 
DISL,ioos:station:DISL:DISL:1,2015-01-05T01:00:00Z,30.2513,-88.0778,9.68,7.03,318.6,-9999.0,'1111122,1111122,1111122' 
DISL,ioos:station:DISL:DISL:1,2015-01-05T01:30:00Z,30.2513,-88.0778,9.68,7.75,324.3,-9999.0,'1111122,1111122,1111122' 
DISL,ioos:station:DISL:DISL:1,2015-01-05T02:00:00Z,30.2513,-88.0778,9.68,7.78,329.4,-9999.0,'1111122,1111122,1111122' 
DISL,ioos:station:DISL:DISL:1,2015-01-05T02:30:00Z,30.2513,-88.0778,9.68,8.23,335.9,-9999.0,'1111122,1111122,1111122' 
DISL,ioos:station:DISL:DISL:1,2015-01-05T03:00:00Z,30.2513,-88.0778,9.68,9.05,338.7,-9999.0,'1111122,1111122,1111122' 
DISL,ioos:station:DISL:DISL:1,2015-01-05T03:30:00Z,30.2513,-88.0778,9.68,8.8,329.8,-9999.0,'1111122,1111122,1111122' 
DISL,ioos:station:DISL:DISL:1,2015-01-05T04:00:00Z,30.2513,-88.0778,9.68,10.2,335.9,-9999.0,'1111122,1111122,1111122' 
DISL,ioos:station:DISL:DISL:1,2015-01-05T04:30:00Z,30.2513,-88.0778,9.68,9.3,337.4,-9999.0,'1111122,1111122,1111122' 
DISL,ioos:station:DISL:DISL:1,2015-01-05T05:00:00Z,30.2513,-88.0778,9.68,9.82,335.2,-9999.0,'1111122,1111122,1111122' 
DISL,ioos:station:DISL:DISL:1,2015-01-05T05:30:00Z,30.2513,-88.0778,9.68,9.74,338.4,-9999.0,'1111122,1111122,1111122' 
DISL,ioos:station:DISL:DISL:1,2015-01-05T06:00:00Z,30.2513,-88.0778,9.68,10.44,340.2,-9999.0,'1111122,1111122,1111122' 
DISL,ioos:station:DISL:DISL:1,2015-01-05T06:30:00Z,30.2513,-88.0778,9.68,11.24,339.3,-9999.0,'1111122,1111122,1111122' 
DISL,ioos:station:DISL:DISL:1,2015-01-05T07:00:00Z,30.2513,-88.0778,9.68,10.46,340.0,-9999.0,'1111122,1111122,1111122' 
DISL,ioos:station:DISL:DISL:1,2015-01-05T07:30:00Z,30.2513,-88.0778,9.68,10.58,357.3,-9999.0,'1111122,1111122,1111122' 
DISL,ioos:station:DISL:DISL:1,2015-01-05T08:00:00Z,30.2513,-88.0778,9.68,10.63,351.1,-9999.0,'1111122,1111122,1111122' 
DISL,ioos:station:DISL:DISL:1,2015-01-05T08:30:00Z,30.2513,-88.0778,9.68,10.85,352.2,-9999.0,'1111122,1111122,1111122' 
DISL,ioos:station:DISL:DISL:1,2015-01-05T09:00:00Z,30.2513,-88.0778,9.68,10.82,357.5,-9999.0,'1111122,1111122,1111122' 
DISL,ioos:station:DISL:DISL:1,2015-01-05T09:30:00Z,30.2513,-88.0778,9.68,11.19,359.3,-9999.0,'1111122,1111122,1111122' 
DISL,ioos:station:DISL:DISL:1,2015-01-05T10:00:00Z,30.2513,-88.0778,9.68,10.14,1.475,-9999.0,'1111122,1111122,1111122' 
DISL,ioos:station:DISL:DISL:1,2015-01-05T10:30:00Z,30.2513,-88.0778,9.68,10.39,354.8,-9999.0,'1111122,1111122,1111122' 